Location: Central Falls
(41.8900°N, 71.3929°W)
Time: 11:31:19
(UTC+00:00)

A-11 Canister half - Pass Details

Date: 09 December 2023
Orbit: 1526 x 1682 km, 47.3° (Epoch: 20 February)

Event Time Altitude Azimuth Distance (km) Brightness Sun altitude
Rises 03:05:40 0° 289° (WNW) 4,934 12.0 -62.9°
Reaches altitude 10° 03:08:53 10° 291° (WNW) 3,938 11.4 -63.4°
Enters shadow 03:09:38 13° 292° (WNW) 3,705 11.2 -63.5°
Maximum altitude 03:19:02 75° 17° (NNE) 1,699 - -64.8°
Drops below altitude 10° 03:28:53 10° 103° (ESE) 3,832 - -66.1°
Sets 03:31:57 0° 106° (ESE) 4,795 - -66.5°
